TimeEDT,TemperatureF,Dew PointF,Humidity,Sea Level PressureIn,VisibilityMPH,Wind Direction,Wind SpeedMPH,Gust SpeedMPH,PrecipitationIn,Events,Conditions,WindDirDegrees,DateUTC
12:54 AM,46.0,41.0,83,30.17,10.0,ESE,5.8,-,N/A,,Clear,110,2013-05-04 04:54:00
1:54 AM,46.0,39.9,79,30.17,10.0,Calm,Calm,-,N/A,,Clear,0,2013-05-04 05:54:00
2:54 AM,45.0,39.9,82,30.15,10.0,Calm,Calm,-,N/A,,Clear,0,2013-05-04 06:54:00
3:54 AM,42.1,37.9,85,30.15,10.0,Calm,Calm,-,N/A,,Clear,0,2013-05-04 07:54:00
4:54 AM,41.0,37.9,89,30.16,10.0,Calm,Calm,-,N/A,,Clear,0,2013-05-04 08:54:00
5:54 AM,43.0,39.9,89,30.16,10.0,Calm,Calm,-,N/A,,Clear,0,2013-05-04 09:54:00
6:54 AM,45.0,41.0,86,30.17,10.0,Calm,Calm,-,N/A,,Clear,0,2013-05-04 10:54:00
7:54 AM,51.1,44.1,77,30.17,10.0,Calm,Calm,-,N/A,,Clear,0,2013-05-04 11:54:00
8:54 AM,57.9,45.0,62,30.18,10.0,SE,5.8,-,N/A,,Clear,140,2013-05-04 12:54:00
9:54 AM,64.9,46.9,52,30.17,10.0,SSE,6.9,-,N/A,,Clear,160,2013-05-04 13:54:00
10:54 AM,63.0,46.0,54,30.17,10.0,East,5.8,-,N/A,,Clear,100,2013-05-04 14:54:00
11:54 AM,66.0,46.0,48,30.17,10.0,East,9.2,-,N/A,,Clear,80,2013-05-04 15:54:00
12:54 PM,66.9,46.0,47,30.17,10.0,ESE,12.7,-,N/A,,Clear,120,2013-05-04 16:54:00
1:54 PM,66.0,46.0,48,30.17,10.0,ESE,12.7,-,N/A,,Clear,110,2013-05-04 17:54:00
2:54 PM,68.0,45.0,43,30.17,10.0,ESE,13.8,-,N/A,,Clear,110,2013-05-04 18:54:00
3:54 PM,69.1,41.0,36,30.16,10.0,ESE,19.6,24.2,N/A,,Clear,120,2013-05-04 19:54:00
4:54 PM,70.0,37.9,31,30.15,10.0,ESE,13.8,21.9,N/A,,Clear,120,2013-05-04 20:54:00
5:54 PM,68.0,39.0,35,30.14,10.0,ESE,12.7,-,N/A,,Clear,120,2013-05-04 21:54:00
6:54 PM,64.0,35.1,34,30.15,10.0,SE,11.5,-,N/A,,Clear,140,2013-05-04 22:54:00
7:54 PM,60.1,36.0,41,30.15,10.0,ESE,8.1,-,N/A,,Clear,110,2013-05-04 23:54:00
8:54 PM,53.1,37.9,57,30.16,10.0,Calm,Calm,-,N/A,,Clear,0,2013-05-05 00:54:00
9:54 PM,50.0,37.9,63,30.16,10.0,Calm,Calm,-,N/A,,Clear,0,2013-05-05 01:54:00
10:54 PM,46.0,37.9,73,30.17,10.0,Calm,Calm,-,N/A,,Clear,0,2013-05-05 02:54:00
11:54 PM,43.0,37.9,82,30.17,10.0,Calm,Calm,-,N/A,,Clear,0,2013-05-05 03:54:00